OBJECT P, 59111

Orbit data source: Space-Track

You're viewing an Uncataloged Satellite

Recently launched and/or uncataloged satellites may have evolving metadata. Metadata may include but not limited to: Owner, Maufacturer, Bus, Motor, and Mission.

OBJECT P, 59111 is a satellite in SSO that was launched on Mon, 04 Mar 2024 UTC via an FALCON 9 launch vehicle from the Air Force Western Test Range (AFWTR). Unknown objects in Earth's orbit typically refer to objects detected orbiting the Earth but have not yet been identified or cataloged. These objects could be anything from previously untracked satellites, spent rocket stages, debris from satellite collisions, or even natural meteoroids temporarily captured by Earth's gravity.

Not visible in the next 10 days
Identifier
59111, 2024-043P
Orbit
SSO
Country
Flag of TBDTBD
Related business
None
Manufacturer
Unknown
Mission
Operational Civil Technology
Bus & Motor
Unknown
Mass
Unknown
Launch date (UTC)
2024-03-04 (2 years ago)
Launch vehicle
FALCON 9
Launch site
Air Force Western Test Range (AFWTR)
Object type
Unknown
Shape & HBR
Box, 0.1 m
Radar Cross Section
0.015 m², Small (<0.1 m²)

Expand to show TLE details & history
Last TLE update: 1 day ago

TLE from 1 day ago
0 OBJECT P
1 59111U 24043P   25345.93121007  .00537048  11854-3  14637-2 0  9994
2 59111  97.5084 131.3276 0001994 278.9627  81.1422 15.94130386 99476
Epoch: 2025-12-11T22:20Z
TLE epoch observation values (Epoch: 2025-12-11T22:20:56.550Z)
Latitude
0.00001°
Longitude
75.21187°
Altitude
293.721 km
Speed
7.732 km/s
True Right ascension
08h 45m 18s
True Declination
0° 00' 00"
Sunlit
Object was in full shadow at epoch
Visualization orbit readout
Latitude
Unknown
Longitude
Unknown
Altitude
Unknown
Speed
Unknown
Apparent Right ascension
Unknown
Apparent Declination
Unknown
Sunlit
N/A
Visualization observer readout
Local Sidereal Time
00:36:13
Azimuth
Unknown
Elevation
Unknown
Doppler factor
Unknown
Orbital elements
Apogee altitude
288.94 km
Perigee altitude
286.282 km
Semi-major axis
6,665.748 km
Eccentricity
0.0002
Inclination
97.5084°
RAAN
131.3276°
Arg. of periapsis
278.9627°
True anomaly
81.16478°
Mean anomaly
81.1422°
Eccentric anomaly
81.15349°
Mean motion
3.98813 °/min
Orbital period
90.27 mins
BSTAR
0.0014637
Loading maneuver chart data...
Computing Atmospheric mass density...
Loading historical data...
Loading historical data...
Loading historical data...
Loading historical data...
Loading historical data...
Loading historical data...
Loading historical data...

Documentation

Showing up to 5 results
|